TimeMST,TemperatureF,Dew PointF,Humidity,Sea Level PressureIn,VisibilityMPH,Wind Direction,Wind SpeedMPH,Gust SpeedMPH,PrecipitationIn,Events,Conditions,WindDirDegrees,DateUTC
12:53 AM,12.0,6.1,77,30.01,10.0,Calm,Calm,-,N/A,,Mostly Cloudy,0,2013-11-06 07:53:00
1:53 AM,17.1,10.0,74,30.09,10.0,Calm,Calm,-,N/A,,Overcast,0,2013-11-06 08:53:00
2:53 AM,14.0,9.0,80,30.09,10.0,Calm,Calm,-,N/A,,Scattered Clouds,0,2013-11-06 09:53:00
3:53 AM,16.0,10.9,81,30.09,10.0,North,3.5,-,N/A,,Mostly Cloudy,10,2013-11-06 10:53:00
4:53 AM,12.0,8.1,84,30.11,10.0,WSW,3.5,-,N/A,,Clear,250,2013-11-06 11:53:00
5:53 AM,12.0,8.1,84,30.13,10.0,WSW,4.6,-,N/A,,Clear,250,2013-11-06 12:53:00
6:53 AM,12.9,9.0,84,30.15,10.0,SW,6.9,-,N/A,,Clear,230,2013-11-06 13:53:00
7:53 AM,17.1,12.0,81,30.18,10.0,WSW,6.9,-,N/A,,Clear,240,2013-11-06 14:53:00
8:53 AM,24.1,15.1,69,30.19,10.0,SW,6.9,-,N/A,,Clear,220,2013-11-06 15:53:00
9:53 AM,28.9,16.0,58,30.19,10.0,West,6.9,-,N/A,,Clear,260,2013-11-06 16:53:00
10:53 AM,34.0,17.1,50,30.20,10.0,SW,6.9,-,N/A,,Clear,230,2013-11-06 17:53:00
11:53 AM,39.0,18.0,43,30.20,10.0,West,9.2,-,N/A,,Partly Cloudy,260,2013-11-06 18:53:00
12:53 PM,42.1,10.0,27,30.20,10.0,NW,11.5,16.1,N/A,,Clear,320,2013-11-06 19:53:00
1:53 PM,43.0,12.0,28,30.21,10.0,North,8.1,-,N/A,,Mostly Cloudy,350,2013-11-06 20:53:00
2:53 PM,42.1,15.1,34,30.22,10.0,West,11.5,-,N/A,,Clear,280,2013-11-06 21:53:00
3:53 PM,39.9,14.0,35,30.24,10.0,West,11.5,-,N/A,,Clear,270,2013-11-06 22:53:00
4:53 PM,30.9,12.0,46,30.28,10.0,West,6.9,-,N/A,,Clear,270,2013-11-06 23:53:00
5:53 PM,28.0,12.0,51,30.30,10.0,West,3.5,-,N/A,,Clear,280,2013-11-07 00:53:00
6:53 PM,23.0,10.9,60,30.32,10.0,West,3.5,-,N/A,,Clear,260,2013-11-07 01:53:00
7:53 PM,19.0,9.0,65,30.34,10.0,West,5.8,-,N/A,,Clear,260,2013-11-07 02:53:00
8:53 PM,19.0,10.0,68,30.34,10.0,WSW,5.8,-,N/A,,Clear,250,2013-11-07 03:53:00
9:53 PM,19.0,10.0,68,30.35,10.0,WSW,5.8,-,N/A,,Clear,250,2013-11-07 04:53:00
10:53 PM,17.1,9.0,71,30.34,10.0,WSW,5.8,-,N/A,,Clear,250,2013-11-07 05:53:00
11:53 PM,18.0,10.0,71,30.34,10.0,SW,6.9,-,N/A,,Clear,230,2013-11-07 06:53:00